Lid_Strength_Index
4 4 4 4 4 4 4 4 4 4 4 4 4 4 4 4 4 6 9 6 5 4 3 3 5 6 6 6 7 8 11 13 12 12 11 9 10 7 6 7 7 7 6 3 2
4 4 4 4 4 4 4 4 4 4 4 4 4 4 4 4 7 8 5 4 3 2 5 5 7 7 9 7 7 9 11 11 10 9 9 8 9 9 8 7 8 7 3 3 2
4 4 4 4 4 4 4 4 4 4 4 4 4 4 4 5 9 10 -1 2 3 2 5 6 5 7 9 7 8 8 11 9 10 8 8 8 8 8 9 9 7 8 6 4 3
4 4 4 4 4 4 5 5 5 4 4 5 5 5 5 7 13 9 0 2 2 3 5 6 6 8 9 10 7 10 8 8 9 8 8 9 8 9 8 8 6 7 7 5 4
4 4 4 5 5 4 5 5 5 5 5 5 5 5 7 10 9 6 1 1 2 4 6 7 8 8 10 9 9 9 8 8 7 7 8 8 9 9 8 7 7 6 6 6 3
4 5 5 5 5 5 5 5 5 5 4 4 5 5 9 11 7 6 6 2 3 4 5 7 8 8 10 10 10 9 9 9 8 8 7 8 8 8 7 5 7 7 7 6 6
4 4 5 5 5 5 5 5 5 5 3 4 5 7 10 9 6 5 6 4 2 4 6 6 7 8 8 10 9 9 10 9 9 8 9 8 10 10 7 5 5 6 6 6 5
4 5 5 5 5 5 5 6 5 4 4 4 4 7 9 6 5 5 5 5 4 2 4 4 5 8 8 7 7 9 10 12 9 8 8 8 12 8 7 6 6 5 6 6 5
5 5 5 5 5 5 6 6 4 4 4 4 6 7 10 4 6 5 5 6 5 3 3 4 5 7 7 10 11 11 13 12 11 7 8 9 11 8 6 7 7 6 5 6 5
5 5 5 5 5 5 6 6 4 4 4 5 5 9 8 9 7 7 6 5 6 5 5 5 6 8 9 10 14 12 12 11 12 9 8 9 10 8 7 7 7 6 6 5 5
5 5 6 5 5 5 7 6 8 9 7 10 9 9 8 6 5 7 6 5 6 7 9 6 9 11 9 8 9 10 11 12 10 9 10 10 10 9 7 7 7 6 6 5 5
5 5 5 5 5 7 8 8 9 8 11 8 8 8 6 6 8 6 4 7 8 9 7 8 10 8 7 8 9 9 11 11 9 9 9 10 10 9 8 8 8 7 7 6 5
6 6 6 6 6 8 9 7 6 7 10 10 7 8 7 6 7 7 5 7 9 10 10 11 9 8 8 9 10 10 11 11 11 8 8 9 11 9 8 8 7 7 6 6 6
6 6 6 6 7 9 7 6 6 7 12 11 9 7 5 5 7 4 4 6 8 10 9 10 9 9 9 10 9 13 8 9 10 11 14 9 15 10 9 8 8 7 7 6 6
6 6 6 7 8 7 7 6 6 7 18 8 7 3 4 6 6 6 3 6 9 9 9 11 10 11 11 10 9 11 8 9 10 11 12 12 15 11 9 9 8 8 7 6 6
6 6 6 7 8 7 7 6 6 12 17 10 7 8 8 6 6 5 5 4 5 8 7 8 7 8 9 8 8 8 11 10 10 12 18 13 14 12 10 9 7 7 6 6 5
6 7 7 7 9 7 7 7 12 15 9 11 10 8 8 9 8 8 8 9 10 13 12 9 9 7 7 9 8 10 14 19 20 19 18 11 14 12 8 7 6 6 6 5 5
7 8 8 7 7 7 6 9 15 13 12 9 10 9 11 9 10 9 10 11 9 10 12 14 14 9 7 9 10 10 14 18 22 20 15 12 15 11 7 6 5 5 5 4 5
8 8 7 7 7 6 7 13 14 12 10 11 10 12 12 11 10 11 11 11 9 9 14 14 13 8 7 7 9 11 15 10 15 14 17 13 10 8 7 7 6 6 5 5 4
10 9 8 6 7 7 10 13 12 9 9 10 14 12 13 12 12 11 11 9 9 8 8 11 16 9 9 7 8 10 9 15 15 20 20 14 13 12 9 8 7 6 6 5 4
9 9 7 7 6 9 14 13 11 8 8 11 12 12 12 12 11 12 12 9 8 8 8 10 13 12 10 12 12 12 14 14 12 14 16 16 13 9 9 7 8 7 7 6 5
9 11 7 7 13 12 14 13 9 10 8 10 10 11 12 11 12 12 12 10 7 7 12 9 13 15 13 9 8 10 12 12 17 16 14 14 14 7 8 8 7 7 6 5 5
11 11 7 8 15 14 12 12 10 11 11 11 12 10 9 11 13 11 10 7 7 8 11 10 13 16 14 13 11 13 12 12 12 12 15 17 14 8 8 7 6 7 6 5 5
11 13 11 11 11 13 14 13 12 10 10 11 12 11 11 12 10 12 11 9 8 8 6 8 13 15 17 14 12 14 12 11 14 17 15 14 12 9 8 8 7 6 5 5 5
12 14 12 14 13 13 13 13 13 13 11 12 12 12 12 14 13 12 11 10 9 8 8 9 14 12 12 11 11 12 12 11 13 12 15 12 12 10 8 8 7 6 6 6 6
12 13 11 13 12 13 13 13 14 13 13 13 14 13 12 14 13 14 12 12 12 9 10 10 13 12 14 12 11 13 11 11 11 11 11 11 12 8 7 6 7 7 7 7 6
10 10 12 13 13 14 13 13 13 12 11 11 12 13 14 11 10 10 9 10 10 11 12 13 13 14 16 13 13 16 14 13 13 12 12 14 10 9 9 8 8 8 8 7 6